status,avgMeasuredTime,avgSpeed,extID,medianMeasuredTime,TIMESTAMP,vehicleCount,_id,REPORT_ID
OK,84,35,709,84,2014-08-01T07:50:00,13,20746261,195178
OK,78,38,709,78,2014-08-01T07:55:00,6,20746433,195178
OK,84,35,709,84,2014-08-01T08:00:00,9,20746764,195178
OK,84,35,709,84,2014-08-01T08:05:00,11,20747213,195178
OK,62,48,709,62,2014-08-01T08:10:00,6,20747586,195178
OK,59,50,709,59,2014-08-01T08:15:00,10,20748035,195178
OK,79,37,709,79,2014-08-01T08:20:00,13,20748484,195178
OK,74,40,709,74,2014-08-01T08:25:00,8,20748933,195178
OK,54,55,709,54,2014-08-01T08:30:00,7,20749382,195178
OK,79,37,709,79,2014-08-01T08:35:00,6,20749831,195178
OK,90,33,709,90,2014-08-01T08:40:00,4,20750280,195178
OK,80,37,709,80,2014-08-01T08:45:00,4,20750729,195178
OK,91,32,709,91,2014-08-01T08:50:00,12,20751178,195178
OK,88,33,709,88,2014-08-01T08:55:00,8,20751627,195178
OK,88,33,709,88,2014-08-01T09:00:00,6,20752076,195178
OK,76,39,709,76,2014-08-01T09:05:00,7,20752525,195178
OK,62,48,709,62,2014-08-01T09:10:00,5,20752974,195178
OK,85,35,709,85,2014-08-01T09:15:00,8,20753423,195178
OK,80,37,709,80,2014-08-01T09:20:00,9,20753872,195178
OK,92,32,709,92,2014-08-01T09:25:00,7,20754321,195178
OK,93,32,709,93,2014-08-01T09:30:00,4,20754770,195178
OK,54,55,709,54,2014-08-01T09:35:00,5,20755219,195178
OK,54,55,709,54,2014-08-01T09:40:00,7,20755668,195178
OK,81,36,709,81,2014-08-01T09:45:00,6,20756117,195178
OK,70,42,709,70,2014-08-01T09:50:00,6,20756566,195178
OK,66,45,709,66,2014-08-01T09:55:00,7,20757015,195178
OK,79,37,709,79,2014-08-01T10:00:00,8,20757464,195178
OK,77,38,709,77,2014-08-01T10:05:00,5,20757913,195178
OK,70,42,709,70,2014-08-01T10:10:00,10,20758362,195178
OK,79,37,709,79,2014-08-01T10:15:00,13,20758811,195178
OK,83,35,709,83,2014-08-01T10:20:00,11,20759260,195178
OK,82,36,709,82,2014-08-01T10:25:00,10,20759709,195178
OK,82,36,709,82,2014-08-01T10:30:00,12,20760158,195178
OK,98,30,709,98,2014-08-01T10:35:00,2,20760607,195178
OK,81,36,709,81,2014-08-01T10:40:00,8,20761056,195178
OK,77,38,709,77,2014-08-01T10:45:00,11,20761505,195178
OK,79,37,709,79,2014-08-01T10:50:00,8,20761954,195178
OK,86,34,709,86,2014-08-01T10:55:00,4,20762403,195178
OK,93,32,709,93,2014-08-01T11:00:00,5,20762852,195178
OK,86,34,709,86,2014-08-01T11:05:00,11,20763301,195178
OK,82,36,709,82,2014-08-01T11:10:00,12,20763750,195178
OK,87,34,709,87,2014-08-01T11:15:00,9,20764199,195178
OK,83,35,709,83,2014-08-01T11:20:00,6,20764647,195178
OK,83,35,709,83,2014-08-01T11:25:00,3,20765096,195178
OK,62,48,709,62,2014-08-01T11:30:00,2,20765545,195178
OK,60,49,709,60,2014-08-01T11:35:00,5,20765994,195178
OK,74,40,709,74,2014-08-01T11:40:00,8,20766443,195178
OK,71,41,709,71,2014-08-01T11:45:00,8,20766892,195178
OK,90,33,709,90,2014-08-01T11:50:00,7,20767341,195178
OK,87,34,709,87,2014-08-01T11:55:00,10,20767790,195178
OK,82,36,709,82,2014-08-01T12:00:00,3,20768239,195178
OK,82,36,709,82,2014-08-01T12:05:00,0,20768688,195178
OK,101,29,709,101,2014-08-01T12:10:00,2,20769137,195178
OK,99,30,709,99,2014-08-01T12:15:00,5,20769586,195178
OK,95,31,709,95,2014-08-01T12:20:00,6,20770035,195178
OK,67,44,709,67,2014-08-01T12:25:00,3,20770484,195178
OK,62,48,709,62,2014-08-01T12:30:00,5,20770933,195178
OK,88,33,709,88,2014-08-01T12:35:00,7,20771382,195178
OK,93,32,709,93,2014-08-01T12:40:00,8,20771831,195178
OK,93,32,709,93,2014-08-01T12:45:00,11,20772280,195178
OK,90,33,709,90,2014-08-01T12:50:00,7,20772729,195178
OK,81,36,709,81,2014-08-01T12:55:00,6,20773178,195178
OK,84,35,709,84,2014-08-01T13:00:00,5,20773627,195178
OK,71,41,709,71,2014-08-01T13:05:00,9,20774076,195178
OK,71,41,709,71,2014-08-01T13:10:00,9,20774525,195178
OK,83,35,709,83,2014-08-01T13:15:00,5,20774974,195178
OK,72,41,709,72,2014-08-01T13:20:00,2,20775423,195178
OK,71,41,709,71,2014-08-01T13:25:00,4,20775872,195178
OK,80,37,709,80,2014-08-01T13:30:00,5,20776321,195178
OK,84,35,709,84,2014-08-01T13:35:00,4,20776770,195178
OK,87,34,709,87,2014-08-01T13:40:00,7,20777219,195178
OK,80,37,709,80,2014-08-01T13:45:00,8,20777668,195178
OK,60,49,709,60,2014-08-01T13:50:00,4,20778117,195178
OK,52,57,709,52,2014-08-01T13:55:00,2,20778566,195178
OK,77,38,709,77,2014-08-01T14:00:00,5,20779015,195178
OK,76,39,709,76,2014-08-01T14:05:00,8,20779464,195178
OK,90,33,709,90,2014-08-01T14:10:00,5,20779913,195178
OK,90,33,709,90,2014-08-01T14:15:00,12,20780362,195178
OK,86,34,709,86,2014-08-01T14:20:00,13,20780811,195178
OK,61,48,709,61,2014-08-01T14:25:00,10,20781260,195178
OK,56,53,709,56,2014-08-01T14:30:00,6,20781709,195178
OK,67,44,709,67,2014-08-01T14:35:00,2,20782158,195178
OK,81,36,709,81,2014-08-01T14:40:00,3,20782607,195178
OK,86,34,709,86,2014-08-01T14:45:00,3,20783056,195178
OK,86,34,709,86,2014-08-01T14:50:00,5,20783505,195178
OK,83,35,709,83,2014-08-01T14:55:00,5,20783954,195178
OK,75,39,709,75,2014-08-01T15:00:00,4,20784403,195178
OK,79,37,709,79,2014-08-01T15:05:00,3,20784852,195178
OK,58,51,709,58,2014-08-01T15:10:00,2,20785301,195178
OK,77,38,709,77,2014-08-01T15:15:00,3,20785750,195178
OK,77,38,709,77,2014-08-01T15:20:00,1,20786199,195178
OK,55,54,709,55,2014-08-01T15:25:00,4,20786648,195178
OK,62,48,709,62,2014-08-01T15:30:00,2,20787097,195178
OK,64,46,709,64,2014-08-01T15:35:00,2,20787546,195178
OK,79,37,709,79,2014-08-01T15:40:00,2,20787995,195178
OK,102,29,709,102,2014-08-01T15:45:00,1,20788444,195178
OK,89,33,709,89,2014-08-01T15:50:00,2,20788893,195178
OK,89,33,709,89,2014-08-01T15:55:00,2,20789342,195178
OK,66,45,709,66,2014-08-01T16:00:00,2,20789791,195178
OK,55,54,709,55,2014-08-01T16:05:00,5,20790240,195178
OK,69,43,709,69,2014-08-01T16:10:00,4,20790689,195178
OK,76,39,709,76,2014-08-01T16:15:00,3,20791138,195178
OK,63,47,709,63,2014-08-01T16:20:00,2,20791587,195178
OK,88,33,709,88,2014-08-01T16:25:00,3,20792036,195178
OK,86,34,709,86,2014-08-01T16:30:00,6,20792485,195178
OK,76,39,709,76,2014-08-01T16:35:00,3,20792934,195178
OK,57,52,709,57,2014-08-01T16:40:00,3,20793383,195178
OK,57,52,709,57,2014-08-01T16:45:00,7,20793832,195178
OK,71,41,709,71,2014-08-01T16:50:00,7,20794281,195178
OK,68,43,709,68,2014-08-01T16:55:00,4,20794730,195178
OK,69,43,709,69,2014-08-01T17:00:00,4,20795179,195178
OK,71,41,709,71,2014-08-01T17:05:00,3,20795628,195178
OK,78,38,709,78,2014-08-01T17:10:00,4,20796077,195178
OK,80,37,709,80,2014-08-01T17:15:00,3,20796526,195178
OK,86,34,709,86,2014-08-01T17:20:00,1,20796975,195178
OK,56,53,709,56,2014-08-01T17:25:00,2,20797424,195178
OK,58,51,709,58,2014-08-01T17:30:00,4,20797873,195178
OK,65,45,709,65,2014-08-01T17:35:00,4,20798322,195178
OK,74,40,709,74,2014-08-01T17:40:00,5,20798771,195178
OK,73,40,709,73,2014-08-01T17:45:00,2,20799220,195178
OK,63,47,709,63,2014-08-01T17:50:00,0,20799669,195178
OK,59,50,709,59,2014-08-01T17:55:00,1,20800118,195178
OK,61,48,709,61,2014-08-01T18:00:00,2,20800567,195178
OK,62,48,709,62,2014-08-01T18:05:00,2,20801016,195178
OK,84,35,709,84,2014-08-01T18:10:00,3,20801465,195178
OK,51,58,709,51,2014-08-01T18:15:00,1,20801914,195178
OK,58,51,709,58,2014-08-01T18:20:00,3,20802363,195178
OK,55,54,709,55,2014-08-01T18:25:00,4,20802812,195178
OK,56,53,709,56,2014-08-01T18:30:00,4,20803261,195178
OK,51,58,709,51,2014-08-01T18:35:00,1,20803710,195178
OK,51,58,709,51,2014-08-01T18:40:00,0,20804159,195178
OK,44,67,709,44,2014-08-01T18:45:00,1,20804608,195178
OK,44,67,709,44,2014-08-01T18:50:00,1,20805057,195178
OK,44,67,709,44,2014-08-01T18:55:00,0,20805506,195178
OK,44,67,709,44,2014-08-01T19:00:00,0,20805955,195178
OK,42,70,709,42,2014-08-01T19:05:00,1,20806404,195178
OK,57,52,709,57,2014-08-01T19:10:00,2,20806853,195178
OK,72,41,709,72,2014-08-01T19:15:00,3,20807302,195178
OK,41,72,709,41,2014-08-01T19:20:00,2,20807751,195178
OK,56,53,709,56,2014-08-01T19:25:00,1,20808200,195178
OK,56,53,709,56,2014-08-01T19:30:00,1,20808649,195178
OK,53,56,709,53,2014-08-01T19:35:00,1,20809098,195178
OK,53,56,709,53,2014-08-01T19:40:00,1,20809547,195178
OK,43,69,709,43,2014-08-01T19:45:00,0,20809996,195178
OK,43,69,709,43,2014-08-01T19:50:00,0,20810445,195178
OK,43,69,709,43,2014-08-01T19:55:00,0,20810894,195178
OK,43,69,709,43,2014-08-01T20:00:00,0,20811339,195178
OK,43,69,709,43,2014-08-01T20:05:00,0,20811513,195178
OK,43,69,709,43,2014-08-01T20:10:00,0,20811716,195178
OK,73,40,709,73,2014-08-01T20:15:00,1,20811922,195178
OK,68,43,709,68,2014-08-01T20:20:00,2,20812131,195178
OK,64,46,709,64,2014-08-01T20:25:00,1,20812349,195178
OK,64,46,709,64,2014-08-01T20:30:00,0,20812564,195178
OK,69,43,709,69,2014-08-01T20:40:00,1,20812974,195178
OK,69,43,709,69,2014-08-01T20:45:00,0,20813182,195178
OK,57,52,709,57,2014-08-01T20:50:00,1,20813393,195178
OK,57,52,709,57,2014-08-01T20:55:00,1,20813623,195178
OK,57,52,709,57,2014-08-01T21:00:00,0,20813861,195178
OK,57,52,709,57,2014-08-01T21:05:00,0,20814037,195178
OK,57,52,709,57,2014-08-01T21:10:00,0,20814277,195178
OK,81,36,709,81,2014-08-01T21:15:00,1,20814473,195178
OK,76,39,709,76,2014-08-01T21:20:00,4,20814680,195178
OK,98,30,709,98,2014-08-01T21:25:00,4,20814909,195178
OK,98,30,709,98,2014-08-01T21:30:00,3,20815185,195178
OK,60,49,709,60,2014-08-01T21:35:00,1,20815418,195178
OK,129,23,709,129,2014-08-01T21:40:00,2,20815642,195178
OK,130,22,709,130,2014-08-01T21:45:00,2,20815879,195178
OK,62,48,709,62,2014-08-01T21:50:00,1,20816120,195178
OK,62,48,709,62,2014-08-01T21:55:00,0,20816355,195178
OK,62,48,709,62,2014-08-01T22:00:00,0,20816623,195178
OK,62,48,709,62,2014-08-01T22:05:00,0,20817072,195178
OK,62,48,709,62,2014-08-01T22:10:00,0,20817394,195178
OK,62,48,709,62,2014-08-01T22:15:00,0,20817823,195178
OK,77,38,709,77,2014-08-01T22:20:00,2,20818113,195178
OK,77,38,709,77,2014-08-01T22:25:00,2,20818429,195178
OK,84,35,709,84,2014-08-01T22:30:00,2,20818763,195178
OK,68,43,709,68,2014-08-01T22:40:00,1,20819247,195178
OK,113,26,709,113,2014-08-01T22:45:00,1,20819535,195178
OK,113,26,709,113,2014-08-01T22:50:00,0,20819770,195178
OK,93,32,709,93,2014-08-01T22:55:00,1,20820023,195178
OK,53,56,709,53,2014-08-01T23:00:00,1,20820199,195178
OK,49,60,709,49,2014-08-01T23:05:00,1,20820452,195178
OK,58,51,709,58,2014-08-01T23:10:00,1,20820682,195178
OK,58,51,709,58,2014-08-01T23:15:00,1,20820870,195178
OK,188,15,709,188,2014-08-01T23:20:00,1,20821120,195178
OK,188,15,709,188,2014-08-01T23:25:00,0,20821298,195178
OK,55,54,709,55,2014-08-01T23:30:00,2,20821524,195178
OK,58,51,709,58,2014-08-01T23:35:00,3,20821769,195178
OK,79,37,709,79,2014-08-01T23:40:00,1,20821948,195178
OK,79,37,709,79,2014-08-01T23:45:00,0,20822171,195178
OK,59,50,709,59,2014-08-01T23:50:00,1,20822438,195178
OK,59,50,709,59,2014-08-01T23:55:00,1,20822764,195178
OK,59,50,709,59,2014-08-02T00:00:00,0,20823062,195178
OK,59,50,709,59,2014-08-02T00:05:00,0,20823511,195178
OK,59,50,709,59,2014-08-02T00:10:00,0,20823960,195178
OK,59,50,709,59,2014-08-02T00:15:00,0,20824409,195178
OK,59,50,709,59,2014-08-02T00:20:00,0,20824858,195178
OK,59,50,709,59,2014-08-02T00:25:00,0,20825307,195178
OK,59,50,709,59,2014-08-02T00:30:00,0,20825756,195178
OK,59,50,709,59,2014-08-02T00:35:00,0,20826205,195178
OK,59,50,709,59,2014-08-02T00:40:00,0,20826654,195178
OK,37,80,709,37,2014-08-02T00:45:00,1,20827103,195178
OK,64,46,709,64,2014-08-02T00:50:00,2,20827552,195178
OK,61,48,709,61,2014-08-02T00:55:00,1,20828001,195178
OK,52,57,709,52,2014-08-02T01:00:00,1,20828450,195178
OK,52,57,709,52,2014-08-02T01:05:00,1,20828899,195178
OK,52,57,709,52,2014-08-02T01:10:00,0,20829348,195178
OK,52,57,709,52,2014-08-02T01:15:00,0,20829797,195178
OK,128,23,709,128,2014-08-02T01:20:00,2,20830246,195178
OK,128,23,709,128,2014-08-02T01:25:00,2,20830695,195178
OK,79,37,709,79,2014-08-02T01:30:00,2,20831144,195178
OK,58,51,709,58,2014-08-02T01:35:00,1,20831593,195178
OK,58,51,709,58,2014-08-02T01:40:00,0,20832042,195178
OK,58,51,709,58,2014-08-02T01:45:00,0,20832491,195178
OK,58,51,709,58,2014-08-02T01:50:00,0,20832940,195178
OK,62,48,709,62,2014-08-02T01:55:00,1,20833389,195178
OK,82,36,709,82,2014-08-02T02:00:00,2,20833838,195178
OK,68,43,709,68,2014-08-02T02:05:00,1,20834287,195178
OK,68,43,709,68,2014-08-02T02:10:00,0,20834736,195178
OK,68,43,709,68,2014-08-02T02:15:00,0,20835185,195178
OK,68,43,709,68,2014-08-02T02:20:00,0,20835634,195178
OK,68,43,709,68,2014-08-02T02:25:00,0,20836083,195178
OK,72,41,709,72,2014-08-02T02:30:00,1,20836532,195178
OK,49,60,709,49,2014-08-02T02:35:00,2,20836981,195178
OK,58,51,709,58,2014-08-02T02:40:00,1,20837430,195178
OK,55,54,709,55,2014-08-02T02:45:00,0,20837879,195178
OK,43,69,709,43,2014-08-02T02:50:00,1,20838328,195178
OK,43,69,709,43,2014-08-02T02:55:00,1,20838777,195178
OK,43,69,709,43,2014-08-02T03:00:00,0,20839226,195178
OK,43,69,709,43,2014-08-02T03:05:00,0,20839675,195178
OK,43,69,709,43,2014-08-02T03:10:00,0,20840124,195178
OK,43,69,709,43,2014-08-02T03:15:00,0,20840573,195178
OK,43,69,709,43,2014-08-02T03:20:00,0,20841022,195178
OK,43,69,709,43,2014-08-02T03:25:00,0,20841471,195178
OK,43,69,709,43,2014-08-02T03:30:00,0,20841920,195178
OK,43,69,709,43,2014-08-02T03:35:00,0,20842369,195178
OK,43,69,709,43,2014-08-02T03:40:00,0,20842818,195178
OK,43,69,709,43,2014-08-02T03:45:00,0,20843267,195178
OK,43,69,709,43,2014-08-02T03:50:00,0,20843716,195178
OK,43,69,709,43,2014-08-02T03:55:00,0,20844165,195178
OK,43,69,709,43,2014-08-02T04:00:00,0,20844614,195178
OK,43,69,709,43,2014-08-02T04:05:00,0,20844745,195178
OK,43,69,709,43,2014-08-02T04:10:00,0,20845075,195178
OK,36,82,709,36,2014-08-02T04:15:00,1,20845255,195178
OK,36,82,709,36,2014-08-02T04:20:00,0,20845611,195178
OK,36,82,709,36,2014-08-02T04:30:00,0,20846167,195178
OK,36,82,709,36,2014-08-02T04:35:00,0,20846534,195178
OK,36,82,709,36,2014-08-02T04:40:00,0,20846917,195178
OK,44,67,709,44,2014-08-02T04:45:00,1,20847176,195178
OK,46,64,709,46,2014-08-02T04:50:00,2,20847542,195178
OK,49,60,709,49,2014-08-02T04:55:00,0,20847899,195178
OK,49,60,709,49,2014-08-02T05:00:00,0,20848259,195178
OK,49,60,709,49,2014-08-02T05:05:00,0,20848423,195178
OK,49,60,709,49,2014-08-02T05:10:00,0,20848777,195178
OK,49,60,709,49,2014-08-02T05:15:00,0,20848969,195178
OK,49,60,709,49,2014-08-02T05:20:00,0,20849313,195178
OK,72,41,709,72,2014-08-02T05:25:00,4,20849838,195178
OK,88,33,709,88,2014-08-02T05:35:00,0,20850110,195178
OK,45,66,709,45,2014-08-02T05:40:00,3,20850403,195178
OK,47,63,709,47,2014-08-02T05:45:00,3,20850704,195178
OK,50,59,709,50,2014-08-02T05:50:00,1,20851062,195178
OK,40,74,709,40,2014-08-02T05:55:00,3,20851316,195178
OK,40,74,709,40,2014-08-02T06:00:00,3,20851619,195178
OK,105,28,709,105,2014-08-02T06:05:00,2,20852068,195178
OK,74,40,709,74,2014-08-02T06:10:00,1,20852517,195178
OK,74,40,709,74,2014-08-02T06:15:00,1,20852966,195178
OK,74,40,709,74,2014-08-02T06:20:00,0,20853415,195178
OK,45,66,709,45,2014-08-02T06:25:00,1,20853864,195178
OK,45,66,709,45,2014-08-02T06:30:00,1,20854313,195178
OK,64,46,709,64,2014-08-02T06:35:00,2,20854762,195178
OK,64,46,709,64,2014-08-02T06:40:00,2,20855211,195178
OK,48,62,709,48,2014-08-02T06:45:00,1,20855660,195178
OK,43,69,709,43,2014-08-02T06:50:00,1,20856109,195178
OK,43,69,709,43,2014-08-02T06:55:00,0,20856558,195178
OK,43,69,709,43,2014-08-02T07:00:00,0,20857007,195178
OK,43,69,709,43,2014-08-02T07:05:00,0,20857456,195178
OK,70,42,709,70,2014-08-02T07:10:00,1,20857905,195178
OK,70,42,709,70,2014-08-02T07:15:00,0,20858354,195178
OK,76,39,709,76,2014-08-02T07:20:00,3,20858803,195178
OK,76,39,709,76,2014-08-02T07:25:00,6,20859252,195178
OK,75,39,709,75,2014-08-02T07:30:00,4,20859701,195178
OK,66,45,709,66,2014-08-02T07:35:00,0,20860150,195178
OK,70,42,709,70,2014-08-02T07:40:00,2,20860599,195178
OK,85,35,709,85,2014-08-02T07:45:00,2,20861048,195178
OK,77,38,709,77,2014-08-02T07:50:00,3,20861497,195178
OK,70,42,709,70,2014-08-02T07:55:00,4,20861946,195178
OK,78,38,709,78,2014-08-02T08:00:00,5,20862395,195178
OK,79,37,709,79,2014-08-02T08:05:00,4,20862844,195178
OK,79,37,709,79,2014-08-02T08:10:00,2,20863293,195178
OK,75,39,709,75,2014-08-02T08:15:00,6,20863742,195178
OK,79,37,709,79,2014-08-02T08:20:00,6,20864191,195178
OK,76,39,709,76,2014-08-02T08:25:00,4,20864640,195178
OK,74,40,709,74,2014-08-02T08:30:00,5,20865089,195178
OK,100,29,709,100,2014-08-02T08:35:00,1,20865538,195178
OK,79,37,709,79,2014-08-02T08:40:00,2,20865987,195178
OK,87,34,709,87,2014-08-02T08:45:00,3,20866436,195178
OK,87,34,709,87,2014-08-02T08:50:00,5,20866885,195178
OK,86,34,709,86,2014-08-02T08:55:00,3,20867334,195178
OK,80,37,709,80,2014-08-02T09:00:00,2,20867783,195178
OK,76,39,709,76,2014-08-02T09:05:00,3,20868232,195178
OK,76,39,709,76,2014-08-02T09:10:00,2,20868681,195178
OK,75,39,709,75,2014-08-02T09:15:00,3,20869130,195178
OK,65,45,709,65,2014-08-02T09:20:00,2,20869579,195178
OK,67,44,709,67,2014-08-02T09:25:00,3,20870028,195178
OK,67,44,709,67,2014-08-02T09:30:00,4,20870477,195178
OK,71,41,709,71,2014-08-02T09:35:00,5,20870926,195178
OK,88,33,709,88,2014-08-02T09:40:00,5,20871375,195178
OK,75,39,709,75,2014-08-02T09:45:00,5,20871824,195178
OK,62,48,709,62,2014-08-02T09:50:00,2,20872273,195178
OK,75,39,709,75,2014-08-02T09:55:00,1,20872722,195178
OK,75,39,709,75,2014-08-02T10:00:00,1,20873171,195178
OK,73,40,709,73,2014-08-02T10:05:00,4,20873620,195178
OK,87,34,709,87,2014-08-02T10:10:00,5,20874069,195178
OK,51,58,709,51,2014-08-02T10:15:00,5,20874518,195178
OK,80,37,709,80,2014-08-02T10:20:00,6,20874967,195178
OK,63,47,709,63,2014-08-02T10:25:00,2,20875416,195178
OK,66,45,709,66,2014-08-02T10:30:00,2,20875865,195178
OK,74,40,709,74,2014-08-02T10:35:00,4,20876314,195178
OK,79,37,709,79,2014-08-02T10:40:00,9,20876763,195178
OK,84,35,709,84,2014-08-02T10:45:00,9,20877212,195178
OK,84,35,709,84,2014-08-02T10:50:00,3,20877661,195178
OK,83,35,709,83,2014-08-02T10:55:00,1,20878110,195178
OK,85,35,709,85,2014-08-02T11:00:00,4,20878559,195178
OK,81,36,709,81,2014-08-02T11:05:00,5,20879008,195178
OK,69,43,709,69,2014-08-02T11:10:00,4,20879457,195178
OK,66,45,709,66,2014-08-02T11:15:00,2,20879906,195178
OK,63,47,709,63,2014-08-02T11:20:00,4,20880355,195178
OK,51,58,709,51,2014-08-02T11:25:00,3,20880804,195178
OK,81,36,709,81,2014-08-02T11:30:00,0,20881253,195178
OK,61,48,709,61,2014-08-02T11:35:00,3,20881702,195178
OK,70,42,709,70,2014-08-02T11:40:00,4,20882151,195178
OK,83,35,709,83,2014-08-02T11:45:00,3,20882600,195178
OK,63,47,709,63,2014-08-02T11:50:00,6,20883049,195178
OK,49,60,709,49,2014-08-02T11:55:00,5,20883498,195178
OK,81,36,709,81,2014-08-02T12:00:00,2,20883947,195178
OK,77,38,709,77,2014-08-02T12:05:00,2,20884396,195178
OK,63,47,709,63,2014-08-02T12:10:00,2,20884845,195178
OK,66,45,709,66,2014-08-02T12:15:00,3,20885294,195178
OK,67,44,709,67,2014-08-02T12:20:00,2,20885743,195178
OK,73,40,709,73,2014-08-02T12:25:00,1,20886192,195178
OK,73,40,709,73,2014-08-02T12:30:00,1,20886641,195178
OK,46,64,709,46,2014-08-02T12:35:00,1,20887090,195178
OK,56,53,709,56,2014-08-02T12:40:00,1,20887539,195178
OK,73,40,709,73,2014-08-02T12:45:00,2,20887988,195178
OK,75,39,709,75,2014-08-02T12:50:00,5,20888437,195178
OK,198,15,709,198,2014-08-02T12:55:00,1,20888886,195178
OK,54,55,709,54,2014-08-02T13:00:00,5,20889335,195178
OK,54,55,709,54,2014-08-02T13:05:00,3,20889784,195178
OK,79,37,709,79,2014-08-02T13:10:00,2,20890233,195178
OK,82,36,709,82,2014-08-02T13:15:00,2,20890682,195178
OK,84,35,709,84,2014-08-02T13:20:00,3,20891131,195178
OK,68,43,709,68,2014-08-02T13:25:00,2,20891580,195178
OK,58,51,709,58,2014-08-02T13:30:00,1,20892029,195178
OK,68,43,709,68,2014-08-02T13:35:00,6,20892478,195178
OK,78,38,709,78,2014-08-02T13:40:00,6,20892927,195178
OK,83,35,709,83,2014-08-02T13:45:00,5,20893376,195178
OK,83,35,709,83,2014-08-02T13:50:00,4,20893825,195178
OK,73,40,709,73,2014-08-02T13:55:00,1,20894274,195178
OK,73,40,709,73,2014-08-02T14:00:00,1,20894723,195178
OK,81,36,709,81,2014-08-02T14:05:00,4,20895172,195178
OK,84,35,709,84,2014-08-02T14:10:00,8,20895621,195178
OK,86,34,709,86,2014-08-02T14:15:00,5,20896070,195178
OK,75,39,709,75,2014-08-02T14:20:00,1,20896519,195178
OK,75,39,709,75,2014-08-02T14:25:00,0,20896968,195178
OK,59,50,709,59,2014-08-02T14:30:00,3,20897417,195178
OK,58,51,709,58,2014-08-02T14:35:00,4,20897866,195178
OK,63,47,709,63,2014-08-02T14:40:00,2,20898315,195178
OK,80,37,709,80,2014-08-02T14:45:00,4,20898764,195178
OK,89,33,709,89,2014-08-02T14:50:00,3,20899213,195178
OK,85,35,709,85,2014-08-02T14:55:00,4,20899662,195178
OK,79,37,709,79,2014-08-02T15:00:00,4,20900111,195178
OK,75,39,709,75,2014-08-02T15:05:00,1,20900560,195178
OK,86,34,709,86,2014-08-02T15:10:00,3,20901009,195178
OK,86,34,709,86,2014-08-02T15:15:00,2,20901458,195178
OK,61,48,709,61,2014-08-02T15:20:00,3,20901907,195178
OK,66,45,709,66,2014-08-02T15:25:00,4,20902356,195178
OK,52,57,709,52,2014-08-02T15:30:00,3,20902805,195178
OK,68,43,709,68,2014-08-02T15:35:00,4,20903254,195178
OK,85,35,709,85,2014-08-02T15:40:00,7,20903703,195178
OK,84,35,709,84,2014-08-02T15:45:00,2,20904152,195178
OK,80,37,709,80,2014-08-02T15:50:00,3,20904601,195178
OK,80,37,709,80,2014-08-02T15:55:00,3,20905050,195178
OK,82,36,709,82,2014-08-02T16:00:00,2,20905499,195178
OK,51,58,709,51,2014-08-02T16:05:00,1,20905948,195178
OK,67,44,709,67,2014-08-02T16:10:00,2,20906397,195178
OK,65,45,709,65,2014-08-02T16:15:00,4,20906846,195178
OK,65,45,709,65,2014-08-02T16:20:00,4,20907295,195178
OK,46,64,709,46,2014-08-02T16:25:00,0,20907744,195178
OK,42,70,709,42,2014-08-02T16:30:00,1,20908193,195178
OK,42,70,709,42,2014-08-02T16:35:00,0,20908642,195178
OK,42,70,709,42,2014-08-02T16:40:00,0,20909091,195178
OK,85,35,709,85,2014-08-02T16:45:00,1,20909540,195178
OK,85,35,709,85,2014-08-02T16:50:00,3,20909989,195178
OK,91,32,709,91,2014-08-02T16:55:00,2,20910438,195178
OK,94,31,709,94,2014-08-02T17:00:00,1,20910887,195178
OK,46,64,709,46,2014-08-02T17:05:00,1,20911336,195178
OK,51,58,709,51,2014-08-02T17:10:00,4,20911785,195178
OK,71,41,709,71,2014-08-02T17:15:00,3,20912234,195178
OK,80,37,709,80,2014-08-02T17:20:00,2,20912683,195178
OK,79,37,709,79,2014-08-02T17:25:00,5,20913132,195178
OK,65,45,709,65,2014-08-02T17:30:00,6,20913581,195178
OK,66,45,709,66,2014-08-02T17:35:00,2,20914030,195178
OK,69,43,709,69,2014-08-02T17:40:00,2,20914479,195178
OK,89,33,709,89,2014-08-02T17:45:00,0,20914928,195178
OK,89,33,709,89,2014-08-02T17:50:00,0,20915377,195178
OK,89,33,709,89,2014-08-02T17:55:00,0,20915826,195178
OK,89,33,709,89,2014-08-02T18:00:00,0,20916275,195178
OK,40,74,709,40,2014-08-02T18:05:00,2,20916724,195178
OK,49,60,709,49,2014-08-02T18:10:00,1,20917173,195178
OK,49,60,709,49,2014-08-02T18:15:00,0,20917622,195178
OK,45,66,709,45,2014-08-02T18:20:00,1,20918071,195178
OK,50,59,709,50,2014-08-02T18:25:00,1,20918520,195178
OK,47,63,709,47,2014-08-02T18:30:00,3,20918969,195178
OK,65,45,709,65,2014-08-02T18:35:00,2,20919418,195178
OK,74,40,709,74,2014-08-02T18:40:00,2,20919867,195178
OK,63,47,709,63,2014-08-02T18:45:00,2,20920316,195178
OK,67,44,709,67,2014-08-02T18:50:00,3,20920765,195178
OK,67,44,709,67,2014-08-02T18:55:00,3,20921214,195178
OK,49,60,709,49,2014-08-02T19:00:00,2,20921663,195178
OK,63,47,709,63,2014-08-02T19:05:00,2,20922112,195178
OK,76,39,709,76,2014-08-02T19:10:00,1,20922561,195178
OK,76,39,709,76,2014-08-02T19:15:00,0,20923010,195178
OK,48,62,709,48,2014-08-02T19:20:00,1,20923459,195178
OK,48,62,709,48,2014-08-02T19:25:00,1,20923908,195178
OK,83,35,709,83,2014-08-02T19:30:00,1,20924357,195178
OK,83,35,709,83,2014-08-02T19:35:00,0,20924806,195178
OK,50,59,709,50,2014-08-02T19:40:00,4,20925255,195178
OK,64,46,709,64,2014-08-02T19:45:00,4,20925704,195178
OK,99,30,709,99,2014-08-02T19:50:00,0,20926153,195178
OK,99,30,709,99,2014-08-02T19:55:00,0,20926602,195178
OK,99,30,709,99,2014-08-02T20:00:00,0,20927051,195178
OK,65,45,709,65,2014-08-02T20:05:00,2,20927500,195178
OK,71,41,709,71,2014-08-02T20:10:00,1,20927949,195178